Regional Weather Roundup
Issued by NWS Jackson, KY

Home | Current Version | Previous Version | Graphics & Text | Print | Product List | Glossary On
Versions: 1 2 3 4 5 6 7 8 9 10 11 12 13 14 15 16 17 18 19 20 21 22 23 24 25 26 27 28 29 30 31 32 33 34 35 36 37 38 39 40 41 42 43 44 45 46 47 48 49 50
000
ASUS43 KJKL 170610
RWRJKL

EAST KENTUCKY HOURLY WEATHER ROUNDUP
NATIONAL WEATHER SERVICE JACKSON KY
100 AM EST WED JAN 17 2018

NOTE: "FAIR" INDICATES FEW OR NO CLOUDS BELOW 12,000 FEET WITH
NO SIGNIFICANT WEATHER AND/OR OBSTRUCTIONS TO VISIBILITY.

* THESE REPORTS ARE NOT UNDER NWS QUALITY CONTROL AND MAY NOT
  REPORT WEATHER SUCH AS PRECIPITATION AND FOG.

KYZ079-080-083-085-087-088-110-112-115-119-120-170700
...EASTERN KENTUCKY...

CITY           SKY/WX    TMP DP  RH WIND       PRES   REMARKS
JACKSON          N/A      5   0  79 CALM      30.48F
6HR MIN TEMP:   5; 6HR MAX TEMP:  11; 6HR PCP: TRACE;

LONDON           N/A     -3  -8  79 CALM      30.51F
6HR MIN TEMP:  -5; 6HR MAX TEMP:  11; 6HR PCP: TRACE;

SOMERSET*        N/A     -4  -6  92 CALM      30.57F
MONTICELLO*    FLURRIES -17 -21  82 CALM      30.57F
6HR MIN TEMP: -19; 6HR MAX TEMP:   4; 6HR PCP: TRACE;

WILLIAMSBURG*  CLOUDY     5   1  85 CALM      30.52S
MIDDLESBORO*     N/A      9   3  75 N6        30.50F WCI  -1
6HR MIN TEMP:   9; 6HR MAX TEMP:  17;

HARLAN APT*    CLOUDY    10   5  79 MISG      30.44F
PIKE CO APT*   FLURRIES   7   4  85 NW6       30.46F WCI  -3
BIG SANDY APT* FLURRIES   7   2  82 W3        30.49F
6HR MIN TEMP:   7; 6HR MAX TEMP:  15;

MOREHEAD APT*  CLOUDY     5  -2  72 CALM      30.54S
ASHLAND*       FLURRIES   8   3  80 SW5       30.57F WCI   0
$$

KYZ035-036-041-042-044-050-067-078-099-170700
...CENTRAL KENTUCKY...

CITY           SKY/WX    TMP DP  RH WIND       PRES   REMARKS
MT STERLING*   CLOUDY     5   1  85 CALM      30.54F
FLEMING/MASON* CLOUDY     8   3  81 W6        30.54F WCI  -3
DANVILLE*      CLOUDY     7   1  78 NW5       30.55F WCI  -2
LEXINGTON      CLOUDY     8   1  73 NW6       30.53F WCI  -2
6HR MIN TEMP:   4; 6HR MAX TEMP:   8;

FRANKFORT      CLOUDY     7  -1  70 NW7       30.55F WCI  -5
6HR MIN TEMP:   0; 6HR MAX TEMP:   9;

LOUISVILLE     FLURRIES   8   1  73 W7        30.61F WCI  -3
6HR MIN TEMP:   8; 6HR MAX TEMP:  11; 6HR PCP: TRACE;

LEBANON*       MIX PCPN   7   0  72 W5        30.57S WCI  -2
GLASGOW*       CLOUDY     6   0  77 NW5       30.59F WCI  -3
BOWLING GREEN  CLOUDY     7   1  76 NW6       30.63F WCI  -3
6HR MIN TEMP:   5; 6HR MAX TEMP:   9;

$$

KYZ091>093-OHZ055-061-077-WVZ005-015-034-035-042-170700
...SOUTHERN OHIO/WEST VIRGINIA...

CITY           SKY/WX    TMP DP  RH WIND       PRES   REMARKS
COVINGTON      FLURRIES   7   4  87 W7        30.53F WCI  -5
COLUMBUS       FLURRIES   7   2  80 W6        30.52F WCI  -3
DAYTON         CLOUDY     7   4  87 SW7       30.51F WCI  -5
WILMINGTON     CLOUDY     6   2  83 W8        30.50F WCI  -7
HUNTINGTON     MOCLDY     6   2  83 SW3       30.53F
CHARLESTON     FLURRIES  12   5  73 NW12      30.49F WCI  -2
BECKLEY        LGT SNOW  12   7  80 N9        30.30F WCI   0
BLUEFIELD      LGT SNOW  14  10  84 W7        30.26F FOG     WCI   4
LOGAN CO APT*  LGT SNOW  12   9  85 CALM      30.41F
$$

VAZ002-007-008-TNZ017-027-036-066-071-170700
...SOUTHWEST VIRGINIA/EAST TENNESSEE...

CITY           SKY/WX    TMP DP  RH WIND       PRES   REMARKS
WISE*          FLURRIES  12  10  92 N5        30.32S WCI   4
JONESVILLE*    CLOUDY    16   9  73 NW6       30.44F WCI   7
ABINGDON*      LGT SNOW  21  16  83 N6        30.32S WCI  13
BRISTOL        LGT SNOW  21  18  88 NW5       30.37F FOG     WCI  15
MORRISTOWN*    CLOUDY    16  12  86 N5        30.41F WCI   9
SEVIERVILLE*   CLOUDY    16  12  86 NW7       30.45F WCI   6
KNOXVILLE      CLOUDY    15   7  70 N10       30.46F WCI   2
LAFOLLETTE*    CLOUDY     9   1  72 CALM      30.52F
OAK RIDGE      CLOUDY    13   3  64 VRB5      30.50F WCI   5
CROSSVILLE       N/A      3  -2  79 N7        30.42F WCI  -9
NASHVILLE      CLOUDY     7  -1  70 N7        30.62F WCI  -5
$$

...KEY TO REMARKS...
VSB - VISIBILITY IN MILES
WCI - WIND CHILL INDEX
HX  - HEAT INDEX

$$



USA.gov is the U.S. government's official web portal to all federal, state and local government web resources and services.